Regional Weather Roundup
Issued by NWS

Home | Current Version | Previous Version | Graphics & Text | Print | Product List | Glossary On
Versions: 1 2 3 4 5 6 7 8 9 10 11 12 13 14 15 16 17 18 19 20 21 22 23 24 25 26 27
000
ASUS45 KCYS 281910
RWRWY

WYOMING REGIONAL WEATHER ROUNDUP
NATIONAL WEATHER SERVICE CHEYENNE WY
100 PM MDT SAT MAY 28 2016

NOTE:  "FAIR" INDICATES FEW OR NO CLOUDS BELOW 12,000 FEET
WITH NO SIGNIFICANT WEATHER AND/OR OBSTRUCTIONS TO VISIBILITY.

WYZ001-282000-
YELLOWSTONE NATIONAL PARK

CITY           SKY/WX    TMP DP  RH WIND       PRES   REMARKS
LK YELLOWSTONE   N/A     46  24  42 VRB7      30.13R
W YELLOWSTONE  NOT AVBL

$$
WYZ002>013-054>058-071-098>099-282000-
NORTHERN WYOMING

CITY           SKY/WX    TMP DP  RH WIND       PRES   REMARKS
JACKSON        SUNNY     57  21  24 MISG      30.07S
CODY           FAIR      59  41  51 N6        29.98F
GREYBULL       PTSUNNY   63  45  51 E6        29.96F
WORLAND        FAIR      63  41  44 CALM      29.96F
SHERIDAN       PTSUNNY   62  48  60 NW10      29.99F
BUFFALO        CLOUDY    58  44  60 NE9       30.01F
GILLETTE       FAIR      65  44  46 VRB7      29.96F
HULETT         MOCLDY    64  45  48 NW9       29.96F
NEWCASTLE      FAIR      70  36  28 W9G18     29.94F

$$
WYZ014>020-022>026-101>103-282000-
CENTRAL WYOMING

CITY           SKY/WX    TMP DP  RH WIND       PRES   REMARKS
BIG PINEY      FAIR      58  29  33 W13G23    30.10F
PINEDALE       MOCLDY    55  32  41 S9        30.11S
DUBOIS         FAIR      57  18  21 W23G29    30.04S
LANDER         PTSUNNY   63  35  35 CALM      29.98F
RIVERTON       FAIR      64  32  30 VRB5      29.99F
CASPER         FAIR      60  40  47 E7        29.99S
DOUGLAS          N/A    N/A N/A N/A MISG      29.97F

$$
WYZ021-027>030-104>119-282000-
SOUTHERN WYOMING

CITY           SKY/WX    TMP DP  RH WIND       PRES   REMARKS
EVANSTON       CLOUDY    59  34  39 W17G33    30.11S
KEMMERER         N/A     55  34  44 W17G24    30.12F
FORT BRIDGER   CLEAR     64  32  29 W17G26    30.14S
ROCK SPRINGS   PTSUNNY   59  29  31 W15G24    30.09F
DIXON          MOCLDY    60  34  38 NW20G28   30.14R
RAWLINS        FAIR      61  28  28 SW17G29   30.09F
SARATOGA       RAIN      50  37  62 W13G28    30.13S
LARAMIE        PTSUNNY   59  30  33 W16G23    30.08F
CHEYENNE       CLOUDY    64  34  32 MISG      30.03F
TORRINGTON     FAIR      70  43  37 VRB3      29.94F
PINE BLUFFS    MOCLDY    66  34  30 N12G17    30.01S

$$




USA.gov is the U.S. government's official web portal to all federal, state and local government web resources and services.